This is the latest recevied weather packets stored in our database for station/object KO6MEX-13. If no packets are shown the sender has not sent any weather packets the latest 10 day(s).
| Time | Temp. | Humidity | Pressure | Rain* | Wind** | Luminosity | Snow |
|---|---|---|---|---|---|---|---|
| 1777249199 | 16.67° C | 59% | 1018 hPa | 0 mm | - | 216 W/m² | - |
| 1777248895 | 16.67° C | 57% | 1017.6 hPa | 0 mm | - | 220 W/m² | - |
| 1777248592 | 17.22° C | 57% | 1017.8 hPa | 0 mm | - | 296 W/m² | - |
| 1777248289 | 17.78° C | 57% | 1017.9 hPa | 0 mm | - | 347 W/m² | - |
| 1777247984 | 17.78° C | 57% | 1017.9 hPa | 0 mm | - | 429 W/m² | - |
| 1777247678 | 17.22° C | 56% | 1017.7 hPa | 0 mm | - | 463 W/m² | - |
| 1777247376 | 17.78° C | 56% | 1017.8 hPa | 0 mm | - | 459 W/m² | - |
| 1777247074 | 17.78° C | 53% | 1017.5 hPa | 0 mm | - | 369 W/m² | - |
| 1777246771 | 17.78° C | 54% | 1017.9 hPa | 0 mm | - | 513 W/m² | - |
| 1777246466 | 17.22° C | 55% | 1017.8 hPa | 0 mm | - | 303 W/m² | - |
| 1777246164 | 17.22° C | 54% | 1017.8 hPa | 0 mm | - | 283 W/m² | - |
| 1777245861 | 17.22° C | 56% | 1017.8 hPa | 0 mm | - | 274 W/m² | - |
| 1777245559 | 17.22° C | 57% | 1017.7 hPa | 0 mm | - | 340 W/m² | - |
| 1777245255 | 17.78° C | 52% | 1017.7 hPa | 0 mm | - | 291 W/m² | - |
| 1777244951 | 18.33° C | 48% | 1017.8 hPa | 0 mm | - | 285 W/m² | - |
| 1777244647 | 17.78° C | 52% | 1017.9 hPa | 0 mm | - | 344 W/m² | - |
| 1777244342 | 18.33° C | 50% | 1017.9 hPa | 0 mm | - | 331 W/m² | - |
| 1777244040 | 18.33° C | 51% | 1017.8 hPa | 0 mm | - | 386 W/m² | - |
| 1777243737 | 18.89° C | 50% | 1017.8 hPa | 0 mm | - | 396 W/m² | - |
| 1777243434 | 18.89° C | 52% | 1018 hPa | 0 mm | - | 611 W/m² | - |
| 1777243130 | 18.33° C | 53% | 1018 hPa | 0 mm | - | 513 W/m² | - |
| 1777242827 | 18.33° C | 55% | 1018 hPa | 0 mm | - | 323 W/m² | - |
| 1777242523 | 17.78° C | 55% | 1018.1 hPa | 0 mm | - | 461 W/m² | - |
| 1777242219 | 17.78° C | 57% | 1018.2 hPa | 0 mm | - | 487 W/m² | - |
| 1777241918 | 17.78° C | 57% | 1018.2 hPa | 0 mm | - | 432 W/m² | - |
* Rain latest hour (hover to see other rain measurements)
** Current wind speed in m/s (hover to see current wind gust speed)